This is the latest recevied weather packets stored in our database for station/object KC5DAQ-27. If no packets are shown the sender has not sent any weather packets the latest 10 day(s).
| Time | Temp. | Humidity | Pressure | Rain* | Wind** | Luminosity | Snow |
|---|---|---|---|---|---|---|---|
| 1778338000 | 24.44° C | 97% | 1001.6 hPa | 0 mm | - | 225 W/m² | - |
| 1778337940 | 24.44° C | 97% | 1001.5 hPa | 0 mm | - | 229 W/m² | - |
| 1778337880 | 24.44° C | 97% | 1001.6 hPa | 0 mm | - | 230 W/m² | - |
| 1778337821 | 24.44° C | 97% | 1001.4 hPa | 0 mm | - | 232 W/m² | - |
| 1778337761 | 24.44° C | 97% | 1001.3 hPa | 0 mm | - | 234 W/m² | - |
| 1778337699 | 24.44° C | 97% | 1001.4 hPa | 0 mm | - | 234 W/m² | - |
| 1778337640 | 24.44° C | 97% | 1001.4 hPa | 0 mm | - | 234 W/m² | - |
| 1778337580 | 24.44° C | 97% | 1001.4 hPa | 0 mm | - | 232 W/m² | - |
| 1778337520 | 24.44° C | 97% | 1001.6 hPa | 0 mm | - | 230 W/m² | - |
| 1778337459 | 24.44° C | 97% | 1001.6 hPa | 0 mm | - | 230 W/m² | - |
| 1778337401 | 24.44° C | 97% | 1001.5 hPa | 0 mm | - | 229 W/m² | - |
| 1778337339 | 24.44° C | 97% | 1001.5 hPa | 0 mm | - | 227 W/m² | - |
| 1778337280 | 24.44° C | 97% | 1001.3 hPa | 0 mm | - | 227 W/m² | - |
| 1778337220 | 24.44° C | 97% | 1001.4 hPa | 0 mm | - | 223 W/m² | - |
| 1778337160 | 24.44° C | 97% | 1001.3 hPa | 0 mm | - | 223 W/m² | - |
| 1778337099 | 24.44° C | 97% | 1001.4 hPa | 0 mm | - | 225 W/m² | - |
| 1778337041 | 23.89° C | 97% | 1001.4 hPa | 0 mm | - | 216 W/m² | - |
| 1778336981 | 23.89° C | 97% | 1001.4 hPa | 0 mm | - | 216 W/m² | - |
| 1778336921 | 23.89° C | 97% | 1001.5 hPa | 0 mm | - | 216 W/m² | - |
| 1778336861 | 23.89° C | 97% | 1001.3 hPa | 0 mm | - | 216 W/m² | - |
| 1778336800 | 23.89° C | 97% | 1001.4 hPa | 0 mm | - | 216 W/m² | - |
| 1778336740 | 23.89° C | 97% | 1001.3 hPa | 0 mm | - | 216 W/m² | - |
| 1778336679 | 23.89° C | 97% | 1001.3 hPa | 0 mm | - | 215 W/m² | - |
| 1778336619 | 23.89° C | 97% | 1001.3 hPa | 0 mm | - | 213 W/m² | - |
| 1778336560 | 23.89° C | 97% | 1001.2 hPa | 0 mm | - | 208 W/m² | - |
* Rain latest hour (hover to see other rain measurements)
** Current wind speed in m/s (hover to see current wind gust speed)